TimeMDT,TemperatureF,Dew PointF,Humidity,Sea Level PressureIn,VisibilityMPH,Wind Direction,Wind SpeedMPH,Gust SpeedMPH,PrecipitationIn,Events,Conditions,WindDirDegrees,DateUTC
12:53 AM,57.9,39.0,49,29.59,10.0,South,16.1,-,N/A,,Clear,180,2013-09-25 06:53:00
1:53 AM,59.0,36.0,42,29.59,10.0,North,10.4,-,N/A,,Clear,350,2013-09-25 07:53:00
2:53 AM,53.1,39.0,59,29.60,10.0,SE,5.8,-,N/A,,Clear,130,2013-09-25 08:53:00
3:53 AM,53.1,39.9,61,29.58,10.0,SE,4.6,-,N/A,,Clear,130,2013-09-25 09:53:00
4:53 AM,50.0,41.0,71,29.59,10.0,SW,5.8,-,N/A,,Clear,230,2013-09-25 10:53:00
5:53 AM,48.9,41.0,74,29.57,10.0,Calm,Calm,-,N/A,,Clear,0,2013-09-25 11:53:00
6:53 AM,52.0,39.0,61,29.56,10.0,South,9.2,-,N/A,,Clear,180,2013-09-25 12:53:00
7:53 AM,54.0,37.9,55,29.57,10.0,Calm,Calm,-,N/A,,Clear,0,2013-09-25 13:53:00
8:53 AM,57.9,39.0,49,29.58,10.0,NW,10.4,-,N/A,,Clear,320,2013-09-25 14:53:00
9:53 AM,59.0,42.1,53,29.58,10.0,North,16.1,-,N/A,,Clear,350,2013-09-25 15:53:00
10:53 AM,59.0,42.1,53,29.58,10.0,North,13.8,-,N/A,,Clear,360,2013-09-25 16:53:00
11:53 AM,59.0,42.1,53,29.58,10.0,NNE,15.0,-,N/A,,Clear,20,2013-09-25 17:53:00
12:53 PM,59.0,42.1,53,29.55,10.0,NNE,15.0,-,N/A,,Clear,20,2013-09-25 18:53:00
1:53 PM,57.9,44.1,60,29.50,10.0,NNE,15.0,-,N/A,,Clear,20,2013-09-25 19:53:00
2:53 PM,57.9,44.1,60,29.50,10.0,NNE,15.0,-,N/A,,Partly Cloudy,20,2013-09-25 20:53:00
3:53 PM,57.0,43.0,59,29.49,10.0,NNE,17.3,21.9,N/A,,Mostly Cloudy,20,2013-09-25 21:53:00
4:53 PM,57.0,41.0,55,29.51,10.0,North,15.0,-,N/A,,Mostly Cloudy,350,2013-09-25 22:53:00
5:53 PM,55.9,41.0,57,29.55,10.0,North,15.0,-,N/A,,Mostly Cloudy,350,2013-09-25 23:53:00
6:53 PM,52.0,43.0,71,29.62,9.0,NNW,9.2,-,0.01,Rain,Light Rain,340,2013-09-26 00:53:00
7:09 PM,51.8,44.6,76,29.66,10.0,North,12.7,-,0.00,Rain-Thunderstorm,Light Rain,350,2013-09-26 01:09:00
7:24 PM,51.8,44.6,76,29.64,10.0,NNE,10.4,-,0.01,Rain,Light Rain,20,2013-09-26 01:24:00
7:53 PM,48.9,45.0,86,29.59,10.0,NNW,10.4,-,0.01,,Clear,340,2013-09-26 01:53:00
8:43 PM,48.2,46.4,93,29.68,10.0,NW,13.8,-,N/A,,Partly Cloudy,320,2013-09-26 02:43:00
8:53 PM,48.9,46.9,93,29.62,10.0,NW,13.8,-,N/A,,Mostly Cloudy,320,2013-09-26 02:53:00
9:49 PM,48.2,46.4,93,29.67,10.0,North,8.1,-,N/A,,Overcast,10,2013-09-26 03:49:00
9:53 PM,48.9,46.9,93,29.60,10.0,NNE,11.5,-,N/A,,Overcast,20,2013-09-26 03:53:00
10:29 PM,48.2,46.4,93,29.70,10.0,NNW,8.1,-,N/A,,Overcast,330,2013-09-26 04:29:00
10:53 PM,48.9,46.9,93,29.61,10.0,North,4.6,-,N/A,,Overcast,10,2013-09-26 04:53:00
11:53 PM,48.0,46.9,96,29.62,10.0,WNW,5.8,-,0.04,Rain,Light Rain,300,2013-09-26 05:53:00